This is the latest recevied weather packets stored in our database for station/object SV1BYK-4. If no packets are shown the sender has not sent any weather packets the latest 10 day(s).
| Time | Temp. | Humidity | Pressure | Rain* | Wind** | Luminosity | Snow |
|---|---|---|---|---|---|---|---|
| 1777624596 | 13.33° C | 68% | 1014.4 hPa | 0 mm | - | 0 W/m² | - |
| 1777623516 | 13.33° C | 69% | 1014.4 hPa | 0 mm | - | 0 W/m² | - |
| 1777620816 | 12.78° C | 73% | 1014.5 hPa | 0 mm | - | 0 W/m² | - |
| 1777619196 | 12.22° C | 73% | 1014.3 hPa | 0 mm | - | 0 W/m² | - |
| 1777618656 | 12.22° C | 73% | 1014.2 hPa | 0 mm | - | 0 W/m² | - |
| 1777615416 | 12.78° C | 74% | 1013.3 hPa | 0 mm | - | 0 W/m² | - |
| 1777613796 | 12.22° C | 74% | 1013.2 hPa | 0 mm | - | 0 W/m² | - |
| 1777613256 | 12.22° C | 73% | 1013.3 hPa | 0 mm | - | 0 W/m² | - |
| 1777612716 | 12.22° C | 73% | 1013.1 hPa | 0 mm | - | 0 W/m² | - |
| 1777611096 | 12.78° C | 75% | 1012.5 hPa | 0 mm | - | 0 W/m² | - |
| 1777610016 | 13.33° C | 76% | 1012.4 hPa | 0 mm | - | 0 W/m² | - |
| 1777607316 | 13.33° C | 75% | 1011.5 hPa | 0 mm | - | 0 W/m² | - |
| 1777600296 | 15° C | 65% | 1010.5 hPa | 0 mm | - | 0 W/m² | - |
| 1777595436 | 15.56° C | 71% | 1009.9 hPa | 0.25 mm | - | 0 W/m² | - |
| 1777593816 | 16.11° C | 72% | 1009.9 hPa | 0 mm | - | 0 W/m² | - |
| 1777591656 | 16.67° C | 68% | 1009.8 hPa | 0 mm | - | 0 W/m² | - |
| 1777589496 | 16.67° C | 63% | 1009.9 hPa | 0 mm | - | 0 W/m² | - |
| 1777587876 | 17.22° C | 67% | 1009.8 hPa | 0 mm | - | 0 W/m² | - |
| 1777586796 | 17.22° C | 65% | 1009.9 hPa | 0 mm | - | 0 W/m² | - |
| 1777585716 | 17.78° C | 63% | 1009.4 hPa | 0 mm | - | 0 W/m² | - |
| 1777584096 | 18.33° C | 60% | 1009.1 hPa | 0 mm | - | 0 W/m² | - |
| 1777577616 | 20.56° C | 58% | 1009.5 hPa | 0 mm | - | 0 W/m² | - |
| 1777577076 | 20.56° C | 58% | 1009.5 hPa | 0 mm | - | 0 W/m² | - |
| 1777571676 | 20.56° C | 51% | 1008.6 hPa | 0 mm | - | 0 W/m² | - |
| 1777570056 | 20.56° C | 50% | 1008.3 hPa | 0 mm | - | 0 W/m² | - |
* Rain latest hour (hover to see other rain measurements)
** Current wind speed in m/s (hover to see current wind gust speed)